Change the Weather History Date:

Friday, December 20, 2013

  Actual Average Record
Temperature  
Mean Temperature 38 °F -  
Max Temperature 55 °F 46 °F 67 °F (1949)
Min Temperature 21 °F 25 °F 10 °F (1951)
Degree Days  
Heating Degree Days 27    
Moisture  
Dew Point 21 °F    
Average Humidity 75    
Maximum Humidity 88    
Minimum Humidity 63    
Precipitation  
Precipitation 0.01 in - - ()
Sea Level Pressure  
Sea Level Pressure 29.90 in    
Wind  
Wind Speed 12 mph (North)    
Max Wind Speed 23 mph    
Max Gust Speed 32 mph    
Visibility 8 miles    
Events Rain    
Averages and records for this station are not official NWS values.
T = Trace of Precipitation, MM = Missing Value Source: NWS Daily Summary

Daily Weather History Graph

Daily Weather History Graph

Search for Another Location

Airport or City:

Trip Planner

Search our weather history database for the weather conditions in past years. The results will help you decide how hot, cold, wet, or windy it might be!

Date:

Astronomy

Dec. 20, 2013 Rise Set
Actual Time 7:36 AM CST 5:15 PM CST
Civil Twilight 7:07 AM CST 5:44 PM CST
Nautical Twilight 6:35 AM CST 6:17 PM CST
Astronomical Twilight 6:03 AM CST 6:48 PM CST
Moon 8:33 PM CST (12/20) 9:35 AM CST (12/20)
Length of Visible Light 10h 36m
Length of Day
9h 38m
Waning Gibbous, 90% of the Moon is Illuminated
Dec 20
Waning Gibbous
Dec 25
Last Quarter
Jan 1
New
Jan 7
First Quarter
Jan 15
Full

Hourly Weather History & Observations

Time (CST) Temp. Windchill Dew Point Humidity Pressure Visibility Wind Dir Wind Speed Gust Speed Precip Events Conditions
12:53 AM 54.0 °F - 48.9 °F 83% 29.64 in 10.0 mi NW 4.6 mph - N/A   Mostly Cloudy
1:12 AM 55.4 °F - 50.0 °F 82% 29.66 in 10.0 mi WNW 4.6 mph - N/A   Overcast
1:24 AM 48.2 °F - 44.6 °F 87% 29.68 in 10.0 mi NNW 17.3 mph 23.0 mph N/A   Overcast
1:53 AM 41.0 °F 32.2 °F 35.1 °F 79% 29.69 in 10.0 mi North 18.4 mph 26.5 mph N/A   Overcast
2:53 AM 37.0 °F 26.2 °F 27.0 °F 67% 29.76 in 9.0 mi North 21.9 mph 29.9 mph N/A   Overcast
3:53 AM 30.0 °F 16.6 °F 23.0 °F 75% 29.84 in 7.0 mi NNW 23.0 mph 32.2 mph N/A   Overcast
4:07 AM 28.4 °F 15.4 °F 21.2 °F 74% 29.85 in 7.0 mi NNW 19.6 mph 26.5 mph N/A   Overcast
4:38 AM 26.6 °F 13.1 °F 23.0 °F 86% 29.87 in 4.0 mi NNW 19.6 mph 27.6 mph N/A   Overcast
4:53 AM 26.1 °F 12.0 °F 23.0 °F 88% 29.88 in 4.0 mi NNW 20.7 mph 28.8 mph N/A   Overcast
5:53 AM 24.1 °F 11.5 °F 19.0 °F 81% 29.92 in 10.0 mi NNW 15.0 mph 21.9 mph N/A   Overcast
6:21 AM 24.8 °F 12.9 °F 19.4 °F 80% 29.92 in 10.0 mi NNW 13.8 mph 25.3 mph N/A   Overcast
6:53 AM 23.0 °F 9.2 °F 17.1 °F 78% 29.95 in 10.0 mi NNW 17.3 mph 25.3 mph N/A   Overcast
7:26 AM 23.0 °F 11.1 °F 17.6 °F 80% 29.96 in 10.0 mi North 12.7 mph 23.0 mph N/A   Overcast
7:53 AM 21.9 °F 9.2 °F 16.0 °F 78% 29.98 in 10.0 mi NNW 13.8 mph 20.7 mph N/A   Overcast
8:13 AM 21.2 °F 7.8 °F 15.8 °F 80% 29.98 in 10.0 mi North 15.0 mph 19.6 mph N/A   Overcast
8:53 AM 23.0 °F 10.6 °F 15.1 °F 72% 29.99 in 10.0 mi NNW 13.8 mph 19.6 mph N/A   Overcast
9:53 AM 24.1 °F 13.1 °F 14.0 °F 65% 30.01 in 10.0 mi NNW 11.5 mph - N/A   Overcast
10:53 AM 24.1 °F 13.1 °F 14.0 °F 65% 30.03 in 10.0 mi NW 11.5 mph - N/A   Overcast
11:53 AM 25.0 °F 14.8 °F 14.0 °F 63% 30.01 in 10.0 mi North 10.4 mph - N/A   Overcast
12:53 PM 25.0 °F 14.2 °F 15.1 °F 66% 29.96 in 10.0 mi NNW 11.5 mph - N/A   Overcast
1:53 PM 26.1 °F 17.6 °F 15.1 °F 63% 29.97 in 10.0 mi NW 8.1 mph - N/A   Overcast
2:53 PM 26.1 °F 19.4 °F 16.0 °F 66% 29.96 in 10.0 mi NW 5.8 mph - N/A   Overcast
3:53 PM 27.0 °F 19.5 °F 17.1 °F 66% 29.97 in 10.0 mi NNW 6.9 mph - N/A   Overcast
4:04 PM 28.4 °F 19.7 °F 17.6 °F 64% 29.93 in 10.0 mi NNW 9.2 mph - N/A   Overcast
4:53 PM 27.0 °F 18.7 °F 17.1 °F 66% 29.95 in 10.0 mi North 8.1 mph - N/A   Scattered Clouds
5:53 PM 27.0 °F 17.3 °F 17.1 °F 66% 29.94 in 10.0 mi North 10.4 mph - N/A   Scattered Clouds
6:03 PM 26.6 °F 18.2 °F 17.6 °F 69% 29.91 in 10.0 mi NNE 8.1 mph - N/A   Mostly Cloudy
6:13 PM 26.6 °F 19.1 °F 17.6 °F 69% 29.92 in 10.0 mi NNE 6.9 mph - N/A   Mostly Cloudy
6:25 PM 26.6 °F 19.1 °F 17.6 °F 69% 29.92 in 10.0 mi North 6.9 mph - N/A   Overcast
6:34 PM 26.6 °F 18.2 °F 17.6 °F 69% 29.92 in 10.0 mi NNE 8.1 mph - N/A   Overcast
6:53 PM 27.0 °F 20.5 °F 17.1 °F 66% 29.94 in 10.0 mi NNE 5.8 mph - N/A   Overcast
7:53 PM 27.0 °F 19.5 °F 19.0 °F 72% 29.92 in 10.0 mi NE 6.9 mph - 0.00 in   Overcast
8:26 PM 26.6 °F 21.2 °F 19.4 °F 74% 29.91 in 8.0 mi NNE 4.6 mph - 0.00 in Rain Light Freezing Rain
8:53 PM 27.0 °F 14.3 °F 21.0 °F 78% 29.83 in 6.0 mi East 17.3 mph 21.9 mph 0.00 in Rain Light Freezing Rain
9:10 PM 26.6 °F 19.1 °F 21.2 °F 80% 29.91 in 7.0 mi Variable 6.9 mph 16.1 mph 0.01 in Rain Light Freezing Rain
9:17 PM 26.6 °F 21.2 °F 21.2 °F 80% 29.91 in 6.0 mi North 4.6 mph - 0.01 in Rain Light Freezing Rain
9:28 PM 26.6 °F 20.0 °F 21.2 °F 80% 29.90 in 7.0 mi North 5.8 mph - 0.01 in Rain Light Freezing Rain
9:41 PM 26.6 °F 20.0 °F 21.2 °F 80% 29.93 in 7.0 mi Variable 5.8 mph - 0.01 in Rain Light Freezing Rain
9:53 PM 27.0 °F 19.5 °F 21.9 °F 81% 29.94 in 6.0 mi NNW 6.9 mph - 0.01 in Rain Light Freezing Rain
10:20 PM 26.6 °F 18.2 °F 21.2 °F 80% 29.90 in 6.0 mi North 8.1 mph - 0.00 in Rain Light Freezing Rain
10:40 PM 26.6 °F 17.5 °F 21.2 °F 80% 29.88 in 5.0 mi NNE 9.2 mph - N/A Rain Light Freezing Rain
10:46 PM 26.6 °F 17.5 °F 21.2 °F 80% 29.88 in 6.0 mi NNE 9.2 mph - N/A Rain Light Freezing Rain
10:53 PM 27.0 °F 17.3 °F 21.9 °F 81% 29.94 in 6.0 mi North 10.4 mph - N/A Rain Light Freezing Rain
11:04 PM 28.4 °F 19.1 °F 23.0 °F 80% 29.89 in 6.0 mi North 10.4 mph - N/A Rain Light Freezing Rain
11:30 PM 26.6 °F 13.8 °F 23.0 °F 86% 29.84 in 6.0 mi North 17.3 mph - N/A Rain Light Freezing Rain
11:53 PM 26.1 °F 14.5 °F 21.0 °F 81% 29.89 in 9.0 mi North 13.8 mph 20.7 mph N/A Rain Light Freezing Rain